Regional Weather Roundup
Issued by NWS

Home | Current Version | Previous Version | Text Only | Print | Product List | Glossary Off
Versions: 1 2 3 4 5 6 7 8 9 10 11 12 13 14 15 16 17 18 19 20 21 22 23 24 25 26 27 28 29 30 31 32 33 34 35 36 37 38 39 40 41 42 43 44 45 46 47 48 49 50

000
ASUS43 KIND 230059
RWRIN

WEATHER ROUNDUP FOR INDIANA
NATIONAL WEATHER SERVICE INDIANAPOLIS IN
900 PM EDT WED MAR 22 2017

NOTE: "FAIR" INDICATES FEW OR NO CLOUDS BELOW 12,000 FEET WITH NO
SIGNIFICANT WEATHER AND/OR OBSTRUCTIONS TO VISIBILITY.

* - STATION DOES NOT REPORT WEATHER SUCH AS PRECIPITATION OR FOG.

+ - STATION NOT QUALITY CONTROLLED BY THE NATIONAL WEATHER SERVICE.
    USE DATA WITH CAUTION...ESPECIALLY DEWPOINT AND RELATIVE
    HUMIDITY OBSERVATIONS.

INZ001>003-010>013-019-020-230200-
NORTHWEST INDIANA

CITY           SKY/WX    TMP DP  RH WIND       PRES   REMARKS
GARY /AIRPORT/ MOCLDY    32  21  64 NE9       30.51F WCI  24
KNOX *+        CLOUDY    32  -8  18 E5        30.49F WCI  27
MONTICELLO +   CLEAR     33  18  53 E3        30.48S

$$

LMZ046-743>745-230200-
SOUTHERN LAKE MICHIGAN

STATION/POSITION TIME  TEMP    WIND        PRES    WAVE
                       AIR SEA DIR/SP/G            HT
                 (UTC) (F)     (DEG/KT/KT) (MB)    (FT)
BURNS HARBOR     0040   31      60/ 11/ 12 1033.2F
MICHIGAN CITY    0030   30      40/ 12/ 14   N/A

$$

INZ004-005-014>016-021>024-230200-
NORTH CENTRAL INDIANA

CITY           SKY/WX    TMP DP  RH WIND       PRES   REMARKS
ELKHART        PTCLDY    32  12  43 E3        30.49F
GOSHEN         CLOUDY    31  14  49 E3        30.49S
SOUTH BEND     PTCLDY    33  12  41 E5        30.50S WCI  29

$$

INZ006>009-017-018-025>027-230200-
NORTHEAST INDIANA

CITY           SKY/WX    TMP DP  RH WIND       PRES   REMARKS
ANGOLA *+      CLEAR     30  16  55 SE3       30.49S
FORT WAYNE     CLOUDY    30  17  58 E7        30.50S WCI  23
KENDALLVILLE + CLOUDY    31  14  50 SE3       30.49S

$$

INZ028-029-035-036-043>045-051>053-230200-
WEST CENTRAL INDIANA

CITY           SKY/WX    TMP DP  RH WIND       PRES   REMARKS
CRAWFORDSVL +  PTCLDY    31  22  68 NE7       30.46R WCI  24
LAFAYETTE      CLEAR     33  19  56 E12       30.47S WCI  24
TERRE HAUTE    MOCLDY    35  19  52 E7        30.45R WCI  29

$$

INZ030>032-037>040-046>048-054>057-064-065-230200-
CENTRAL INDIANA

CITY           SKY/WX    TMP DP  RH WIND       PRES   REMARKS
COLUMBUS       CLEAR     34  21  60 NE10      30.46S WCI  26
INDIANAPOLIS   PTCLDY    36  19  50 E13       30.45R
-EAGLE CREEK   CLEAR     36  17  46 E12       30.45R
KOKOMO +       PTCLDY    31  24  75 E6        30.49R WCI  25
SHELBYVILLE    CLEAR     35  21  56 NE12      30.45S WCI  27

$$

INZ033-034-041-042-049-050-058-059-230200-
EAST CENTRAL INDIANA

CITY           SKY/WX    TMP DP  RH WIND       PRES   REMARKS
MUNCIE         CLOUDY    33  21  61 E6        30.48R WCI  28
RICHMOND +     PTCLDY    32  23  69 NE8       30.46R WCI  25

$$

INZ060-061-067>069-081>083-085>088-230200-
SOUTHWEST INDIANA

CITY           SKY/WX    TMP DP  RH WIND       PRES   REMARKS
EVANSVILLE     CLEAR     43  20  39 NE9       30.40S
HUNTINGBURG *+ CLOUDY    40  18  41 NE9       30.42R

$$

INZ062-063-066-070>080-084-089>092-230200-
SOUTH CENTRAL AND SOUTHEAST INDIANA

CITY           SKY/WX    TMP DP  RH WIND       PRES   REMARKS
BLOOMINGTON    PTCLDY    37  17  44 E7        30.43R
MADISON *+     CLEAR     36  18  48 NE7       30.45S
SEYMOUR +      CLEAR     37  23  56 NE8       30.44S

$$





USA.gov is the U.S. government's official web portal to all federal, state and local government web resources and services.